Regional Weather Roundup
Issued by NWS

Home | Current Version | Previous Version | Graphics & Text | Print | Product List | Glossary On
Versions: 1 2 3 4 5 6 7 8 9 10 11 12 13 14 15 16 17 18 19 20 21 22 23 24 25 26 27 28 29 30 31 32 33 34 35 36 37 38 39 40 41 42 43 44 45 46 47 48 49 50
000
ASUS43 KLOT 162006
RWRIL

ILLINOIS REGIONAL WEATHER ROUNDUP
NATIONAL WEATHER SERVICE CHICAGO/ROMEOVILLE IL
300 PM CDT TUE SEP 16 2014

NOTE: "FAIR" INDICATES FEW OR NO CLOUDS BELOW 12,000 FEET WITH NO
SIGNIFICANT WEATHER AND/OR OBSTRUCTIONS TO VISIBILITY.

* THESE STATIONS ARE NOT UNDER NWS QUALITY CONTROL. THEY ALSO MAY NOT
  REPORT WEATHER SUCH AS PRECIPITATION OR FOG.

ILZ001-002-007-009-015-016-024-162100-
NORTHWEST ILLINOIS

CITY           SKY/WX    TMP DP  RH WIND       PRES   REMARKS
MOLINE         SUNNY     66  42  41 CALM      30.14F
STERLING*      SUNNY     66  43  42 NW5       30.14F
SAVANNA*       SUNNY     64  40  40 CALM      30.14F
$$

ILZ003-004-008-010-011-017-018-162100-
NORTH CENTRAL ILLINOIS

CITY           SKY/WX    TMP DP  RH WIND       PRES   REMARKS
ROCKFORD       SUNNY     65  40  39 W6        30.15F
FREEPORT*      SUNNY     63  42  46 CALM      30.16F
ROCHELLE*      SUNNY     64  42  43 CALM      30.14F
DE KALB*       SUNNY     62  43  49 W6        30.15F
PERU*          MOSUNNY   65  45  48 CALM      30.15F
$$

ILZ005-006-012>014-019>023-162100-
NORTHEAST ILLINOIS

CITY           SKY/WX    TMP DP  RH WIND       PRES   REMARKS
CHICAGO-OHARE  MOSUNNY   65  39  38 W8        30.13F
CHICAGO-MIDWAY MOSUNNY   68  43  40 VRB5      30.13F
AURORA         SUNNY     67  39  35 VRB5      30.14F
LANSING*       SUNNY     66  45  47 W6        30.13F
JOLIET*        SUNNY     65  38  37 CALM      30.15F
WAUKEGAN       SUNNY     64  43  46 CALM      30.12F
DUPAGE AIRPORT SUNNY     68  41  37 W9        30.13F
KANKAKEE*      SUNNY     65  45  48 CALM      30.14F
WHEELING       SUNNY     67  39  35 VRB3      30.14F
MORRIS*        SUNNY     67  44  43 CALM      30.14F
ROMEOVILLE*    SUNNY     65  40  40 CALM      30.14F
NORTHERLY ISL    N/A     61  49  64 NE6         N/A
$$

LMZ740>746-162100-
SOUTHERN LAKE MICHIGAN

STATION/POSITION SKY/WX   TEMP    WIND        PRES    VSBY  WAVE
                          AIR SEA DIR/SP/G                  HT/PER
                          (F)     (DEG/KT/KT) (MB)    (MI)  (FT/S)
SOUTHERN BUOY              58 65  300/  8/ 12 1021.0F         1/ 4
WAUKEGAN HARBOR            59     100/  6/  8   N/A
HARRISON CRIB              58      90/  7/  8   N/A
BURNHAM HARBOR             61      80/  5/  7   N/A
CALUMET HARBOR             60      50/  6/  8 1019.3F
MICHIGAN CITY              62     310/  7/  9   N/A
MICHIGAN CITY 6N           60 65  360/  4/  8   N/A           2/ 4
ST. JOSEPH                 60 67  300/  8/ 12   N/A           2/ 5
$$

ILZ025>027-034>036-040-047-049-050-058-095>099-162100-
WEST-CENTRAL ILLINOIS

CITY           SKY/WX    TMP DP  RH WIND       PRES   REMARKS
QUINCY         SUNNY     67  46  47 N3        30.14F
GALESBURG*     SUNNY     70  45  41 CALM      30.15F
MACOMB*        SUNNY     66  46  47 SW5       30.17F
JACKSONVILLE*  PTSUNNY   68  51  53 CALM      30.15F
PITTSFIELD*    MOSUNNY   68  50  51 NE3       30.15F
$$

ILZ028>032-037-038-041>044-048-051>054-059>061-162100-
CENTRAL ILLINOIS

CITY           SKY/WX    TMP DP  RH WIND       PRES   REMARKS
PONTIAC        SUNNY     66  45  45 CALM      30.14F
DECATUR        MOSUNNY   66  50  56 VRB3      30.15F
PEORIA         SUNNY     68  46  45 SE5       30.15F
LACON*         SUNNY     64  42  45 NW5       30.14F
LINCOLN*       MOSUNNY   69  48  45 S5        30.12F
SPRINGFIELD    MOSUNNY   66  49  54 CALM      30.15F
TAYLORVILLE    PTSUNNY   61  50  67 CALM      30.15F
$$

ILZ033-039-045-046-055>057-062-063-162100-
EAST-CENTRAL ILLINOIS

CITY           SKY/WX    TMP DP  RH WIND       PRES   REMARKS
CHAMPAIGN      SUNNY     66  48  52 CALM      30.15F
DANVILLE*      PTSUNNY   63  48  57 CALM      30.12F
RANTOUL*       PTSUNNY   67  44  43 NE5       30.15F
MATTOON        PTSUNNY   64  50  60 CALM      30.14F
PARIS*         PTSUNNY   67  51  56 NE3       30.15F
$$

ILZ079-100>102-162100-
SOUTHWEST ILLINOIS

CITY           SKY/WX    TMP DP  RH WIND       PRES   REMARKS
ALTON          PTSUNNY   63  50  63 CALM      30.16F
BELLEVILLE     PTSUNNY   66  54  64 N5        30.14F
CAHOKIA*       CLOUDY    66  53  63 CALM      30.15F
SPARTA*        CLOUDY    63  53  69 CALM      30.16F
$$

ILZ064>066-069>071-074>076-080>082-084>086-088>090-092>094-162100-
SOUTH-CENTRAL ILLINOIS

CITY           SKY/WX    TMP DP  RH WIND       PRES   REMARKS
CARBONDALE     CLOUDY    63  52  67 N7        30.15F
CAIRO*         MOSUNNY   71  57  61 N9        30.13F
EFFINGHAM*     MOSUNNY   64  47  52 CALM      30.15F
MARION         CLOUDY    64  54  68 N7        30.16F
MT. VERNON     CLOUDY    63  52  67 N5        30.16F
CENTRALIA*     PTSUNNY   64  49  59 NW3       30.15F
SALEM*         PTSUNNY   65  53  65 NW3       30.15F
METROPOLIS*    PTSUNNY   69  55  61 NW7       30.12F
$$

ILZ067-068-072-073-078-083-087-091-162100-
SOUTHEAST ILLINOIS

CITY           SKY/WX    TMP DP  RH WIND       PRES   REMARKS
LAWRENCEVILLE  CLOUDY    65  51  60 N7        30.15F
FLORA*         SUNNY     62  52  68 N7        30.16F
FAIRFIELD*     CLOUDY   N/A N/A N/A N7        30.15F
HARRISBURG*    CLOUDY    62  53  73 N6        30.16F
ROBINSON*      PTSUNNY   65  54  66 N3        30.16F
CARMI*         CLOUDY    65  55  68 N5        30.14F
$$

ABBREVIATIONS USED IN REMARKS
   TC - TEMPERATURE IN CELSIUS
  WCI - WIND CHILL INDEX
   HX - HEAT INDEX
  VSB - VISIBILITY
$$



USA.gov is the U.S. government's official web portal to all federal, state and local government web resources and services.